Location: Orlando
(28.5380°N, 81.3790°W)
Time: 19:45:56
(UTC-04:00)

Envisat - Visible Passes

Search period start: 22 October 2019 00:00
Search period end: 01 November 2019 00:00
Orbit: 764 x 766 km, 98.1° (Epoch: 22 October)

Date Brightness Start Highest point End Pass type
(mag) Time Alt. Az. Time Alt. Az. Time Alt. Az.
22 Oct 5.3 20:33:33 10° SSW 20:37:36 24° W 20:41:40 10° NW visible
23 Oct 3.5 19:55:45 10° S 20:00:45 61° W 20:05:46 10° NNW visible
24 Oct 3.1 19:19:08 10° SSE 19:24:03 53° ENE 19:28:59 10° N visible
24 Oct 6.2 21:01:18 10° WSW 21:03:15 12° W 21:05:13 10° WNW visible
25 Oct 4.8 20:21:49 10° SSW 20:26:17 31° W 20:30:47 10° NW visible
26 Oct 6.5 07:00:39 10° ENE 07:02:40 12° E 07:04:42 10° ESE visible
26 Oct 3.1 19:44:24 10° S 19:49:29 81° WSW 19:54:34 10° NNW visible
27 Oct 3.4 19:08:08 10° SE 19:12:50 40° ENE 19:17:33 10° N visible
27 Oct 5.8 20:48:47 10° SW 20:51:55 16° W 20:55:03 10° WNW visible
28 Oct 4.3 20:10:14 10° S 20:15:00 41° W 20:19:47 10° NNW visible
29 Oct 2.9 19:33:10 10° SSE 19:38:14 78° ENE 19:43:19 10° N visible
30 Oct 5.5 20:36:46 10° SW 20:40:35 22° W 20:44:25 10° NW visible
31 Oct 3.7 19:58:46 10° S 20:03:43 54° W 20:08:41 10° NNW visible
